Погода в Одоевском

Россия / Костромская область     58°09′43″N   45°51′46″E
темп.,
°C
ветер,
м/с
пор.,
м/с
влажн.,
%
обл.,
%
осадки,
мм/ч
давл.,
гПа
погр.,
м
15 мая, сб
сб1500:00+15ююз2285100 0.0 101728
03:00+13ссв119695 0.4 101716
06:00+16в2693100 0.2 1016163
09:00+21ююв3771100 0.2 1014559
12:00+26юв355325 0.0 10131160
15:00+28ю474392 0.0 10111945
18:00+22юз61375100 2.5 1011868
21:00+15св2498100 9.9 101392
16 мая, вс
вс1600:00+15ююв3896100 1.3 1013204
03:00+15ю389814 1.4 1012212
06:00+16ю310930 0.0 1013361
09:00+21ююз596211 0.0 10131099
12:00+23юз694590 0.0 10131871
15:00+24юз59440 0.0 10122176
18:00+22юз48564 0.0 10121059
21:00+18ююз3107512 0.3 1013300
17 мая, пн
пн1700:00+14юз311874 0.1 1014311
03:00+13юз29930 0.1 1015235
06:00+15зюз36850 0.0 1016251
09:00+20зюз356328 0.0 1017980
12:00+23зюз354814 0.0 10171732
15:00+25зюз35435 0.0 10161972
18:00+23юз2359100 0.0 101690
21:00+17ююз00735 0.0 101711
18 мая, вт
вт1800:00+15вюв117829 0.0 101711
03:00+14юв228516 0.1 101732
06:00+17вюв25765 0.0 1017143
09:00+23юв35585 0.0 1017618
12:00+28ююв34371 0.0 10161489
15:00+29ююв35285 0.0 10153053
18:00+25вюв38489 0.0 1015259
21:00+18юв36690 0.0 101590
19 мая, ср
ср1900:00+16юв396797 0.0 1015146
03:00+15юв3117086 0.0 1015184
06:00+17юв31167100 0.0 1014293
09:00+24юв5104399 0.0 1014549
12:00+28ююв6113188 0.0 10131583
15:00+29юв611315 0.0 10113579
18:00+26юв613405 0.0 10101338
21:00+21юв51654100 0.0 1009728